Weather History for Chatham, MA

Change the Weather History Date:

Saturday, November 1, 2014

  Actual Average Record
Temperature  
Mean Temperature 50 °F -  
Max Temperature 53 °F 53 °F 66 °F (2006)
Min Temperature 45 °F 41 °F 35 °F (2008)
Degree Days  
Heating Degree Days 16    
Moisture  
Dew Point 47 °F    
Average Humidity 88    
Maximum Humidity 97    
Minimum Humidity 68    
Precipitation  
Precipitation 0.37 in - - ()
Sea Level Pressure  
Sea Level Pressure 29.75 in    
Wind  
Wind Speed 13 mph (NE)    
Max Wind Speed 26 mph    
Max Gust Speed 44 mph    
Visibility 8 miles    
Events Rain    
Averages and records for this station are not official NWS values.
T = Trace of Precipitation, MM = Missing Value Source: NWS Daily Summary

Daily Weather History Graph

Daily Weather History Graph

Search for Another Location

Airport:

Trip Planner

Search our weather history database for the weather conditions in past years. The results will help you decide how hot, cold, wet, or windy it might be!

Date:

Astronomy

Nov. 01, 2014 Rise Set
Actual Time 7:11 AM EDT 5:34 PM EDT
Civil Twilight 6:43 AM EDT 6:03 PM EDT
Nautical Twilight 6:10 AM EDT 6:36 PM EDT
Astronomical Twilight 5:37 AM EDT 7:08 PM EDT
Moon 2:31 PM EDT (11/1) 12:58 AM EDT (11/1)
Length of Visible Light 11h 20m
Length of Day
10h 22m
Waxing Gibbous, 67% of the Moon is Illuminated
Nov 1
Waxing Gibbous
Nov 6
Full
Nov 14
Last Quarter
Nov 22
New
Nov 29
First Quarter

Hourly Weather History & Observations

Time (EDT) Temp. Windchill Dew Point Humidity Pressure Visibility Wind Dir Wind Speed Gust Speed Precip Events Conditions
12:52 AM 51.1 °F - 41.0 °F 68% 29.89 in 10.0 mi NNE 10.4 mph 23.0 mph N/A   Mostly Cloudy
1:52 AM 51.1 °F - 42.1 °F 71% 29.87 in 10.0 mi NE 12.7 mph 23.0 mph N/A   Overcast
2:52 AM 51.1 °F - 44.1 °F 77% 29.86 in 10.0 mi NE 15.0 mph 25.3 mph N/A   Clear
3:52 AM 52.0 °F - 46.0 °F 80% 29.82 in 10.0 mi NNE 10.4 mph 25.3 mph N/A   Partly Cloudy
4:52 AM 52.0 °F - 46.0 °F 80% 29.82 in 10.0 mi NNE 8.1 mph 20.7 mph N/A   Overcast
5:12 AM 52.0 °F - 46.9 °F 83% 29.81 in 10.0 mi NNE 8.1 mph 17.3 mph N/A   Overcast
5:52 AM 52.0 °F - 46.9 °F 83% 29.82 in 10.0 mi Variable 6.9 mph 16.1 mph N/A   Overcast
6:45 AM 52.0 °F - 48.0 °F 86% 29.82 in 8.0 mi Variable 4.6 mph - 0.00 in Rain Light Rain
6:52 AM 52.0 °F - 48.0 °F 86% 29.83 in 4.0 mi Variable 6.9 mph - 0.01 in Rain Light Rain
7:02 AM 52.0 °F - 48.9 °F 89% 29.82 in 3.0 mi North 8.1 mph - 0.01 in Rain Light Rain
7:52 AM 52.0 °F - 48.9 °F 89% 29.84 in 10.0 mi Variable 5.8 mph - 0.03 in Rain Light Rain
8:27 AM 52.0 °F - 50.0 °F 93% 29.79 in 6.0 mi NNE 6.9 mph - 0.03 in Rain Light Rain
8:34 AM 52.0 °F - 50.0 °F 93% 29.80 in 8.0 mi NNE 10.4 mph 18.4 mph 0.03 in Rain Light Rain
8:42 AM 52.0 °F - 50.0 °F 93% 29.79 in 10.0 mi NE 10.4 mph 18.4 mph 0.04 in Rain Light Rain
8:49 AM 51.8 °F - 50.0 °F 94% 29.78 in 10.0 mi NNE 10.4 mph 19.6 mph 0.04 in Rain Light Rain
8:52 AM 52.0 °F - 50.0 °F 93% 29.79 in 10.0 mi NNE 9.2 mph 19.6 mph 0.04 in Rain Light Rain
8:59 AM 52.0 °F - 51.1 °F 97% 29.78 in 10.0 mi NNE 10.4 mph 18.4 mph 0.00 in Rain Light Rain
9:52 AM 53.1 °F - 51.1 °F 93% 29.77 in 7.0 mi NE 15.0 mph 26.5 mph 0.00 in Rain Light Rain
10:52 AM 53.1 °F - 51.1 °F 93% 29.75 in 2.5 mi NE 11.5 mph 20.7 mph 0.08 in Rain Heavy Rain
10:59 AM 53.1 °F - 51.1 °F 93% 29.75 in 2.5 mi NE 16.1 mph 23.0 mph 0.02 in Rain Rain
11:04 AM 53.1 °F - 51.1 °F 93% 29.75 in 3.0 mi NE 16.1 mph 23.0 mph 0.02 in Rain Rain
11:52 AM 53.1 °F - 51.1 °F 93% 29.75 in 4.0 mi NE 12.7 mph 25.3 mph 0.07 in Rain Rain
12:12 PM 53.1 °F - 52.0 °F 96% 29.73 in 3.0 mi NE 10.4 mph 18.4 mph 0.03 in Rain Rain
12:52 PM 52.0 °F - 51.1 °F 97% 29.71 in 5.0 mi NE 18.4 mph 33.4 mph 0.07 in Rain Light Rain
1:14 PM 52.0 °F - 50.0 °F 93% 29.70 in 10.0 mi NE 19.6 mph 29.9 mph 0.00 in Rain Light Rain
1:52 PM 52.0 °F - 48.9 °F 89% 29.70 in 10.0 mi NE 17.3 mph 32.2 mph 0.00 in Rain Light Rain
2:52 PM 50.0 °F - 48.0 °F 93% 29.71 in 6.0 mi NE 16.1 mph 28.8 mph 0.01 in Rain Light Rain
3:52 PM 50.0 °F - 46.9 °F 89% 29.70 in 8.0 mi NE 18.4 mph 27.6 mph 0.04 in Rain Light Rain
4:50 PM 48.2 °F - 46.4 °F 93% 29.69 in 10.0 mi NE 23.0 mph 33.4 mph 0.00 in Rain Light Rain
4:52 PM 48.9 °F - 46.0 °F 90% 29.69 in 10.0 mi NE 18.4 mph 33.4 mph 0.00 in Rain Light Rain
5:20 PM 48.9 °F - 46.0 °F 90% 29.68 in 7.0 mi NE 20.7 mph 34.5 mph 0.01 in Rain Light Rain
5:30 PM 48.0 °F - 45.0 °F 89% 29.68 in 8.0 mi NE 20.7 mph 36.8 mph 0.01 in Rain Light Rain
5:52 PM 48.0 °F - 46.0 °F 93% 29.70 in 9.0 mi NE 17.3 mph 32.2 mph 0.01 in Rain Light Rain
6:06 PM 48.9 °F - 45.0 °F 86% 29.70 in 10.0 mi NE 26.5 mph 35.7 mph 0.00 in Rain Light Rain
6:36 PM 48.0 °F - 45.0 °F 89% 29.70 in 9.0 mi NNE 16.1 mph 34.5 mph 0.01 in Rain Light Rain
6:48 PM 48.2 °F - 44.6 °F 87% 29.70 in 10.0 mi NE 18.4 mph 43.7 mph 0.01 in Rain Light Rain
6:52 PM 48.0 °F - 44.1 °F 86% 29.70 in 10.0 mi NE 21.9 mph 43.7 mph 0.01 in Rain Light Rain
7:52 PM 48.0 °F - 43.0 °F 83% 29.71 in 10.0 mi NNE 12.7 mph 33.4 mph 0.00 in Rain Light Rain
8:52 PM 46.9 °F - 42.1 °F 83% 29.72 in 10.0 mi NNE 17.3 mph 32.2 mph 0.00 in   Overcast
9:52 PM 46.0 °F 37.8 °F 41.0 °F 83% 29.70 in 10.0 mi NNE 23.0 mph 35.7 mph 0.00 in   Overcast
10:52 PM 46.0 °F 39.9 °F 42.1 °F 86% 29.71 in 9.0 mi NNE 13.8 mph 33.4 mph 0.00 in Rain Light Rain
11:52 PM 45.0 °F 37.9 °F 42.1 °F 90% 29.66 in 7.0 mi NNE 16.1 mph 34.5 mph 0.00 in Rain Light Rain